User: anonymous   Login
Location: Muenchen
(48.1800°N, 11.5800°E)
Time: 02:38:19
(UTC+01:00)
Language:

Iridium 37 - Orbit

View from above orbital plane
View from above orbital plane
View from above satellite
View from above satellite

Ground track
Ground track

The orbit data is extracted from the following two-line orbital elements,

1 24968U 97056D   17349.26754132  .00000172  00000-0  49827-4 0  9994
2 24968  86.3985 243.1315 0002234  68.5815 291.5622 14.38641548 58489
Epoch (UTC): 15 December 2017 06:25:15
Eccentricity: 0.0002234
inclination: 86.3985°
perigee height: 761 km
apogee height: 764 km
right ascension of ascending node: 243.1315°
argument of perigee: 68.5815°
revolutions per day: 14.38641548
mean anomaly at epoch: 291.5622°
orbit number at epoch: 5848

The dashed part of the orbit path shows where the satellite is in the earth's shadow,  

DLR